{"data":{"norad_id":61187,"intl_designator":"2024-168C","name":"BEIDOU-3 M27 (C49)","alt_names":[],"object_type":"PAYLOAD","status":"ACTIVE","operator":null,"country":"PRC","launch_date":"2024-09-19","launch_site_code":"XICLF","launch_vehicle":null,"mission":null,"orbit_class":"UNKNOWN","rcs_meters":null,"size_class":null,"mass_kg":null,"dimensions":null,"purposes":["nav"],"wikipedia_slug":null,"has_3d_model":false,"image_url":null,"decayed_at":null,"tle_current":{"epoch":"2026-09-19T19:32:51.416736Z","epoch_age_seconds":73769,"freshness":"FRESH","line1":"1 61187U 24168C   26262.81448399 -.00000027  00000+0  00000+0 0  9996","line2":"2 61187  54.3816 298.9283 0001110 322.1009  73.6087  1.86230487 11027","mean_motion":1.86230487,"eccentricity":0.000111,"inclination_deg":54.3816,"raan_deg":298.9283,"arg_perigee_deg":322.1009,"mean_anomaly_deg":73.6087,"bstar":0,"rev_number":1102,"period_min":773.23537257356,"perigee_km":21525.005219116,"apogee_km":21531.200404354,"semimajor_km":27906.239811735,"source":"CELESTRAK","updated_at":"2026-09-20T09:00:46.716069Z"}}}